CW8633 Weather Reports


Display with metric or nautical units.
time (UTC)temp
F
wind
direction
speed
MPH
gust
MPH
rain 1hr
in
rain 24hr
in
rain mn
in
humidity
%
barometer
mb
20260508042744 60 86 4.0 6.0 0.00 0.00 0.00 39 1012.9
20260508041729 61 76 2.0 5.0 0.00 0.00 0.00 38 1012.9
20260508040753 60 75 4.0 9.0 0.00 0.00 0.00 38 1012.8
20260508035738 60 76 4.0 6.0 0.00 0.00 0.00 40 1012.7
20260508034801 61 67 1.0 5.0 0.00 0.00 0.00 40 1012.7
20260508033727 61 95 2.0 8.0 0.00 0.00 0.00 40 1012.5
20260508032733 61 94 6.0 8.0 0.00 0.00 0.00 39 1012.3
20260508031738 60 74 3.0 7.0 0.00 0.00 0.00 40 1012.3
20260508030744 60 94 4.0 6.0 0.00 0.00 0.00 41 1012.1
20260508025737 60 72 2.0 4.0 0.00 0.00 0.00 45 1012.1
20260508024742 62 34 0.0 2.0 0.00 0.00 0.00 49 1012.0
20260508023726 64 34 1.0 4.0 0.00 0.00 0.00 42 1011.9
20260508022750 66 32 2.0 4.0 0.00 0.00 0.00 41 1011.9
20260508021737 68 284 2.0 3.0 0.00 0.00 0.00 38 1011.9
20260508020740 70 284 0.0 3.0 0.00 0.00 0.00 30 1011.6
20260508015728 70 284 2.0 4.0 0.00 0.00 0.00 31 1011.6
20260508014733 70 282 3.0 6.0 0.00 0.00 0.00 30 1011.5
20260508013739 71 333 3.0 9.0 0.00 0.00 0.00 29 1011.5
20260508012729 72 350 5.0 9.0 0.00 0.00 0.00 28 1011.4
20260508011733 72 15 5.0 8.0 0.00 0.00 0.00 28 1011.4
20260508010741 73 327 6.0 10.0 0.00 0.00 0.00 28 1011.4
20260508005757 72 299 2.0 10.0 0.00 0.00 0.00 26 1011.4
20260508004749 72 234 8.0 17.0 0.00 0.00 0.00 28 1011.3
20260508003736 73 39 2.0 5.0 0.00 0.00 0.00 25 1011.4
20260508002744 73 329 2.0 5.0 0.00 0.00 0.00 26 1011.5
20260508001730 73 25 2.0 4.0 0.00 0.00 0.00 25 1011.8
20260508000735 73 16 1.0 6.0 0.00 0.00 0.00 27 1012.0
20260507235727 73 324 2.0 6.0 0.00 0.00 0.00 26 1012.0
20260507234737 73 307 3.0 8.0 0.00 0.00 0.00 26 1012.1
20260507233744 72 340 4.0 6.0 0.00 0.00 0.00 28 1012.2
20260507232734 72 346 4.0 8.0 0.00 0.00 0.00 27 1012.2
20260507231741 72 284 3.0 10.0 0.00 0.00 0.00 28 1012.2
20260507230744 72 264 4.0 8.0 0.00 0.00 0.00 32 1012.4
20260507225737 71 300 6.0 13.0 0.00 0.00 0.00 31 1012.4
20260507224743 71 269 3.0 8.0 0.00 0.00 0.00 30 1012.5
20260507223733 70 277 7.0 11.0 0.00 0.00 0.00 30 1012.7
20260507222739 70 229 5.0 10.0 0.00 0.00 0.00 33 1012.8
20260507221727 69 237 6.0 11.0 0.00 0.00 0.00 32 1013.0
20260507220736 69 257 7.0 14.0 0.00 0.00 0.00 32 1012.9
20260507215735 69 204 7.0 11.0 0.00 0.00 0.00 31 1012.7
20260507214800 68 236 5.0 10.0 0.00 0.00 0.00 38 1013.3
20260507213726 68 211 6.0 9.0 0.00 0.00 0.00 37 1013.2
20260507212733 68 204 5.0 11.0 0.00 0.00 0.00 36 1013.2
20260507211742 68 176 5.0 13.0 0.00 0.00 0.00 35 1013.3
20260507210729 68 192 8.0 16.0 0.00 0.00 0.00 36 1013.4
20260507205742 68 221 9.0 12.0 0.00 0.00 0.00 36 1013.5
20260507204729 68 166 11.0 16.0 0.00 0.00 0.00 38 1013.7
20260507203739 67 188 9.0 12.0 0.00 0.00 0.00 39 1013.9
20260507202746 67 205 8.0 10.0 0.00 0.00 0.00 40 1014.0
20260507201734 65 182 6.0 10.0 0.00 0.00 0.00 42 1014.1
20260507200724 65 185 4.0 7.0 0.00 0.00 0.00 43 1014.3
20260507195724 65 188 6.0 8.0 0.00 0.00 0.00 37 1014.5
20260507194731 65 217 6.0 10.0 0.00 0.00 0.00 38 1014.6
20260507193740 65 200 5.0 11.0 0.00 0.00 0.00 36 1014.6
20260507192726 65 233 7.0 12.0 0.00 0.00 0.00 35 1014.8
20260507191732 65 207 6.0 14.0 0.00 0.00 0.00 36 1014.9
20260507190742 65 241 8.0 15.0 0.00 0.00 0.00 36 1014.9
20260507185736 66 247 9.0 16.0 0.00 0.00 0.00 33 1015.0
20260507184801 67 254 11.0 16.0 0.00 0.00 0.00 34 1014.8
20260507183729 67 231 8.0 14.0 0.00 0.00 0.00 35 1014.8
20260507182739 67 244 9.0 17.0 0.00 0.00 0.00 34 1014.9
20260507181724 66 212 6.0 12.0 0.00 0.00 0.00 34 1014.9
20260507180724 65 246 6.0 9.0 0.00 0.00 0.00 35 1014.9
20260507175758 65 208 7.0 11.0 0.00 0.00 0.00 34 1014.9
20260507174724 65 194 6.0 10.0 0.00 0.00 0.00 32 1015.1
20260507173735 64 202 7.0 10.0 0.00 0.00 0.00 33 1015.2
20260507172741 64 224 6.0 10.0 0.00 0.00 0.00 36 1015.1
20260507171725 64 215 5.0 10.0 0.00 0.00 0.00 34 1015.2
20260507170732 63 202 4.0 9.0 0.00 0.00 0.00 39 1015.3
20260507165747 62 200 3.0 8.0 0.00 0.00 0.00 41 1015.3
20260507164737 62 175 3.0 5.0 0.00 0.00 0.00 40 1015.4
20260507163742 61 176 3.0 7.0 0.00 0.00 0.00 40 1015.6
20260507162728 61 201 4.0 10.0 0.00 0.00 0.00 42 1015.7
20260507161733 60 207 3.0 7.0 0.00 0.00 0.00 41 1015.8
20260507160725 59 157 4.0 8.0 0.00 0.00 0.00 48 1015.8
20260507155737 58 182 3.0 7.0 0.00 0.00 0.00 49 1015.9
20260507154724 57 166 4.0 7.0 0.00 0.00 0.00 49 1015.9
20260507153731 57 198 2.0 6.0 0.00 0.00 0.00 52 1016.0
20260507152724 56 169 4.0 7.0 0.00 0.00 0.00 49 1016.0
20260507151730 56 194 2.0 5.0 0.00 0.00 0.00 47 1016.0
20260507150736 56 234 3.0 7.0 0.00 0.00 0.00 46 1016.0
20260507145729 55 195 2.0 4.0 0.00 0.00 0.00 47 1016.0
20260507144741 55 196 3.0 5.0 0.00 0.00 0.00 46 1016.0
20260507143729 55 94 1.0 3.0 0.00 0.00 0.00 46 1016.0
20260507142736 54 94 0.0 2.0 0.00 0.00 0.00 51 1015.9
20260507141724 54 94 2.0 3.0 0.00 0.00 0.00 51 1016.0
20260507140736 53 90 1.0 2.0 0.00 0.00 0.00 56 1016.0
20260507135730 51 90 0.0 1.0 0.00 0.00 0.00 59 1016.0
20260507134735 50 90 0.0 2.0 0.00 0.00 0.00 62 1015.9
20260507133801 49 90 1.0 2.0 0.00 0.00 0.00 68 1015.7
20260507132733 48 90 1.0 3.0 0.00 0.00 0.00 69 1015.9
20260507131742 47 89 2.0 2.0 0.00 0.00 0.00 70 1015.7
20260507130728 47 90 0.0 3.0 0.00 0.00 0.00 70 1015.5
20260507125742 47 90 1.0 3.0 0.00 0.00 0.00 68 1015.4
20260507124748 47 89 0.0 3.0 0.00 0.00 0.00 65 1015.4
20260507123737 47 89 0.0 4.0 0.00 0.00 0.00 65 1015.5
20260507122724 47 89 1.0 4.0 0.00 0.00 0.00 64 1015.5
20260507121730 47 89 0.0 3.0 0.00 0.00 0.00 65 1015.7
20260507120732 47 89 1.0 2.0 0.00 0.00 0.00 66 1015.7
20260507115729 47 89 1.0 3.0 0.00 0.00 0.00 65 1015.8
20260507114736 47 89 0.0 2.0 0.00 0.00 0.00 64 1015.8
20260507113743 47 89 0.0 4.0 0.00 0.00 0.00 63 1015.9
20260507112728 47 89 1.0 4.0 0.00 0.00 0.00 61 1015.9
20260507111738 47 89 4.0 6.0 0.00 0.00 0.00 62 1016.0
20260507110741 48 89 3.0 4.0 0.00 0.00 0.00 61 1016.1
20260507105755 48 94 0.0 3.0 0.00 0.00 0.00 61 1016.0
20260507104739 48 94 0.0 2.0 0.00 0.00 0.00 63 1016.1
20260507103725 48 94 1.0 4.0 0.00 0.00 0.00 65 1016.1
20260507102736 47 94 4.0 6.0 0.00 0.00 0.00 67 1016.0
20260507101742 46 106 3.0 4.0 0.00 0.00 0.00 67 1016.2
20260507100730 46 106 2.0 4.0 0.00 0.00 0.00 67 1016.1
20260507095723 46 110 1.0 3.0 0.00 0.00 0.00 67 1016.2
20260507094737 45 110 2.0 4.0 0.00 0.00 0.00 67 1016.2
20260507093725 45 110 2.0 3.0 0.00 0.00 0.00 66 1016.2
20260507092733 46 110 1.0 3.0 0.00 0.00 0.00 64 1016.4
20260507091742 46 111 0.0 2.0 0.00 0.00 0.00 65 1016.4
20260507090730 46 111 0.0 3.0 0.00 0.00 0.00 67 1016.3
20260507085724 46 111 1.0 2.0 0.00 0.00 0.00 67 1016.4
20260507084731 46 111 1.0 2.0 0.00 0.00 0.00 67 1016.3
20260507083739 45 111 3.0 4.0 0.00 0.00 0.00 67 1016.3
20260507082731 46 187 2.0 4.0 0.00 0.00 0.00 67 1016.3
20260507081757 46 234 0.0 3.0 0.00 0.00 0.00 65 1016.4
20260507080724 47 113 0.0 1.0 0.00 0.00 0.00 64 1016.5
20260507075735 47 113 0.0 3.0 0.00 0.00 0.00 63 1016.4
20260507074725 47 113 3.0 4.0 0.00 0.00 0.00 62 1016.5
20260507073732 47 113 1.0 2.0 0.00 0.00 0.00 62 1016.7
20260507072736 47 113 0.0 3.0 0.00 0.00 0.00 63 1016.9
20260507071743 47 113 1.0 3.0 0.00 0.00 0.00 63 1016.9
20260507070750 47 113 2.0 3.0 0.00 0.00 0.00 63 1016.8
20260507065729 48 113 0.0 4.0 0.00 0.00 0.00 65 1017.0
20260507064735 47 114 3.0 6.0 0.00 0.00 0.00 62 1017.0
20260507063800 47 123 1.0 4.0 0.00 0.00 0.00 64 1017.0
20260507062747 47 123 1.0 3.0 0.00 0.00 0.00 64 1016.9
20260507061734 47 123 0.0 3.0 0.00 0.00 0.00 66 1017.0
20260507060739 47 123 1.0 4.0 0.00 0.00 0.00 64 1017.1
20260507055734 47 142 2.0 3.0 0.00 0.00 0.00 65 1017.1
20260507054759 47 142 2.0 3.0 0.00 0.00 0.00 64 1017.1
20260507053724 48 142 2.0 3.0 0.00 0.00 0.00 61 1017.1
20260507052749 49 142 0.0 2.0 0.00 0.00 0.00 60 1017.2
20260507051734 49 142 0.0 2.0 0.00 0.00 0.00 59 1017.2
20260507050724 48 142 1.0 4.0 0.00 0.00 0.00 62 1017.3
20260507045756 49 142 3.0 4.0 0.00 0.00 0.00 63 1017.3
20260507044802 49 156 2.0 3.0 0.00 0.00 0.00 62 1017.3
20260507043727 49 156 2.0 3.0 0.00 0.00 0.00 61 1017.2